SP6TSE-13 Weather Reports


Display with metric or nautical units.
time (UTC)temp
F
wind
direction
speed
MPH
gust
MPH
rain 1hr
in
rain 24hr
in
rain mn
in
humidity
%
barometer
mb
20260502181255 68 16.0 32.0 0.00 0.00 0.00 36 994.2
20260502180255 68 16.0 32.0 0.00 0.00 0.00 36 994.2
20260502170254 73 24.0 40.0 0.00 0.00 0.00 31 994.7
20260502164255 76 24.0 48.0 0.00 0.00 0.00 29 995.1
20260502163254 76 24.0 56.0 0.00 0.00 0.00 29 995.1
20260502162255 76 24.0 56.0 0.00 0.00 0.00 29 995.1
20260502161254 76 32.0 56.0 0.00 0.00 0.00 29 995.1
20260502160254 77 32.0 56.0 0.00 0.00 0.00 28 995.8
20260502152255 78 32.0 48.0 0.00 0.00 0.00 27 996.2
20260502151255 78 32.0 48.0 0.00 0.00 0.00 27 996.2
20260502150255 78 32.0 48.0 0.00 0.00 0.00 27 996.2
20260502130255 75 24.0 48.0 0.00 0.00 0.00 27 997.7
20260502123254 0 24.0 48.0 0.00 0.00 0.00
20260502122254 0 24.0 48.0 0.00 0.00 0.00
20260502121254 75 32.0 48.0 0.00 0.00 0.00 26 998.3
20260502120255 75 32.0 48.0 0.00 0.00 0.00 26 998.3
20260502115255 75 24.0 48.0 0.00 0.00 0.00 27 998.8
20260502114255 75 24.0 48.0 0.00 0.00 0.00 27 998.8
20260502113255 75 24.0 48.0 0.00 0.00 0.00 27 998.8
20260502112254 75 24.0 48.0 0.00 0.00 0.00 27 998.8
20260502111255 73 24.0 48.0 0.00 0.00 0.00 27 999.2
20260502110254 73 24.0 48.0 0.00 0.00 0.00 27 999.2
20260502105254 73 24.0 48.0 0.00 0.00 0.00 27 999.2
20260502104254 73 24.0 48.0 0.00 0.00 0.00 27 999.2
20260502103254 73 24.0 40.0 0.00 0.00 0.00 29 1000.1
20260502102254 73 24.0 40.0 0.00 0.00 0.00 29 1000.1
20260502101254 73 24.0 40.0 0.00 0.00 0.00 29 1000.1
20260502100255 73 24.0 40.0 0.00 0.00 0.00 29 1000.1
20260502091254 74 16.0 32.0 0.00 0.00 0.00 30 1000.4
20260502090255 74 16.0 32.0 0.00 0.00 0.00 30 1000.4
20260502071254 56 8.0 24.0 0.00 0.00 0.00 65 1000.7
20260502070255 56 8.0 24.0 0.00 0.00 0.00 65 1000.7
20260502065254 56 8.0 24.0 0.00 0.00 0.00 65 1000.7
20260502064254 56 8.0 24.0 0.00 0.00 0.00 65 1000.7
20260502063254 56 8.0 24.0 0.00 0.00 0.00 65 1000.7
20260502062254 56 8.0 24.0 0.00 0.00 0.00 65 1000.7
20260502061254 56 8.0 24.0 0.00 0.00 0.00 65 1000.7
20260502060254 56 8.0 24.0 0.00 0.00 0.00 65 1000.7
20260502055255 56 8.0 24.0 0.00 0.00 0.00 65 1000.7
20260502054254 44 8.0 24.0 0.00 0.00 0.00 86 1001.0
20260502053255 44 8.0 24.0 0.00 0.00 0.00 86 1001.0
20260502052254 44 8.0 24.0 0.00 0.00 0.00 86 1001.0
20260502051255 44 8.0 24.0 0.00 0.00 0.00 86 1001.0
20260502050254 44 8.0 24.0 0.00 0.00 0.00 86 1001.0
20260502045255 44 8.0 24.0 0.00 0.00 0.00 86 1001.0
20260502044254 44 8.0 24.0 0.00 0.00 0.00 86 1001.0
20260502043255 44 8.0 24.0 0.00 0.00 0.00 86 1001.0
20260502042255 46 8.0 24.0 0.00 0.00 0.00 76 1000.9
20260502041255 46 8.0 24.0 0.00 0.00 0.00 76 1000.9
20260502040255 46 8.0 24.0 0.00 0.00 0.00 76 1000.9
20260502035254 46 8.0 24.0 0.00 0.00 0.00 76 1000.9
20260502034254 46 8.0 24.0 0.00 0.00 0.00 81 1001.0
20260502033255 46 8.0 24.0 0.00 0.00 0.00 81 1001.0
20260502032255 46 8.0 24.0 0.00 0.00 0.00 81 1001.0
20260502031255 46 8.0 24.0 0.00 0.00 0.00 81 1001.0
20260502030255 46 8.0 24.0 0.00 0.00 0.00 81 1001.0
20260502025255 45 8.0 24.0 0.00 0.00 0.00 85 1000.9
20260502024255 45 8.0 24.0 0.00 0.00 0.00 85 1000.9
20260502023255 45 8.0 24.0 0.00 0.00 0.00 85 1000.9
20260502022255 45 8.0 24.0 0.00 0.00 0.00 85 1000.9
20260502021255 45 8.0 24.0 0.00 0.00 0.00 85 1000.9
20260502020255 45 8.0 24.0 0.00 0.00 0.00 85 1000.9
20260502015254 45 8.0 24.0 0.00 0.00 0.00 85 1000.9
20260502014254 45 8.0 24.0 0.00 0.00 0.00 85 1000.9
20260502013254 45 8.0 24.0 0.00 0.00 0.00 83 1001.1
20260502012255 45 8.0 24.0 0.00 0.00 0.00 83 1001.1
20260502011254 45 8.0 24.0 0.00 0.00 0.00 83 1001.1
20260502010254 45 8.0 24.0 0.00 0.00 0.00 83 1001.1
20260502005255 45 8.0 24.0 0.00 0.00 0.00 84 1001.4
20260502004255 45 8.0 24.0 0.00 0.00 0.00 84 1001.4
20260502003254 45 8.0 24.0 0.00 0.00 0.00 84 1001.4
20260502002255 45 8.0 24.0 0.00 0.00 0.00 84 1001.4
20260502001254 45 8.0 24.0 0.00 0.00 0.00 84 1001.4
20260502000255 46 8.0 24.0 0.00 0.00 0.00 78 1001.3
20260501235255 46 8.0 24.0 0.00 0.00 0.00 78 1001.3
20260501234255 46 8.0 24.0 0.00 0.00 0.00 78 1001.3
20260501233254 46 8.0 24.0 0.00 0.00 0.00 78 1001.3
20260501232254 47 8.0 24.0 0.00 0.00 0.00 76 1001.5
20260501231254 47 8.0 24.0 0.00 0.00 0.00 76 1001.5
20260501230255 47 8.0 24.0 0.00 0.00 0.00 76 1001.5
20260501225254 47 8.0 24.0 0.00 0.00 0.00 76 1001.5
20260501224255 48 8.0 24.0 0.00 0.00 0.00 74 1001.5
20260501223254 48 8.0 24.0 0.00 0.00 0.00 74 1001.5
20260501222255 48 8.0 24.0 0.00 0.00 0.00 74 1001.5
20260501221255 48 8.0 24.0 0.00 0.00 0.00 74 1001.5
20260501220255 48 8.0 24.0 0.00 0.00 0.00 73 1001.6
20260501215255 48 8.0 24.0 0.00 0.00 0.00 73 1001.6
20260501214255 48 8.0 24.0 0.00 0.00 0.00 73 1001.6
20260501213255 48 8.0 24.0 0.00 0.00 0.00 73 1001.6
20260501212254 62 8.0 24.0 0.00 0.00 0.00 42 1001.4
20260501211254 62 8.0 24.0 0.00 0.00 0.00 42 1001.4
20260501210255 62 8.0 24.0 0.00 0.00 0.00 42 1001.4
20260501205255 62 8.0 16.0 0.00 0.00 0.00 42 1001.4
20260501204255 62 8.0 16.0 0.00 0.00 0.00 42 1001.4
20260501203254 62 8.0 16.0 0.00 0.00 0.00 42 1001.4
20260501202254 62 8.0 16.0 0.00 0.00 0.00 42 1001.4
20260501201255 62 8.0 24.0 0.00 0.00 0.00 42 1001.4
20260501200255 62 8.0 24.0 0.00 0.00 0.00 42 1001.4
20260501195254 62 8.0 24.0 0.00 0.00 0.00 42 1001.4
20260501194255 62 8.0 24.0 0.00 0.00 0.00 42 1001.4
20260501193255 62 8.0 24.0 0.00 0.00 0.00 42 1001.4
20260501192255 62 8.0 24.0 0.00 0.00 0.00 42 1001.4
20260501191254 62 8.0 24.0 0.00 0.00 0.00 42 1001.4
20260501190255 62 8.0 24.0 0.00 0.00 0.00 42 1001.4
20260501185254 62 8.0 24.0 0.00 0.00 0.00 42 1001.4
20260501184254 62 8.0 24.0 0.00 0.00 0.00 42 1001.4
20260501183254 69 8.0 24.0 0.00 0.00 0.00 35 1000.8
20260501182254 69 8.0 24.0 0.00 0.00 0.00 35 1000.8